Aérodrome :
LOGIN :

S'inscrire | Disclaimer

   EN    FR    IT 

 










Légende :    VFR   VFR Marginal   IFR   IFR Intensif   IFR Très Intensif
Visi : 
Plafond : 
>= 8 km
>= 3000ft
5 à 8 km
1000 à 3000 ft
1500m à 5 km
500 à 1000 ft
800 à 1500m
200 à 500 ft
< 800m
< 200 ft
Symboles :   Orages  Brouillard  Fortes neiges  Fortes précipitations  Vent > 20 kt
SIGMETs :   Divers  Orages  Givrage  Turbulence  Onde Orograph.  Cendres Volcan.







- Altitude de l'aérodrome : 288 ft
- Code IATA : BZZ


EGVN - RAF Brize Norton

DERNIER METAR :
  • 191250Z 26011KT 9999 FEW032 07/M01 Q1008 NOSIG

METARs EXPIRÉS :
  • 191150Z 26009KT 9999 FEW025 06/M00 Q1008 NOSIG
  • 191050Z 26007KT 9999 FEW020 05/M00 Q1009 NOSIG

TAF TAF EGVN
Valide du 19 à 12h jusqu'au 20 à 12h UTC


191024Z 1912/2012 25006KT 9999 FEW025
TEMPO 1923/2002 SCT007
BECMG 2002/2005 5000 -RA BKN005
PROB30
TEMPO 2006/2011 1500 -RASN BKN002
Pas de NOTAMs connus pour ce terrain.



MET'MAP, la Météo Aéronautique d'un coup d'oeil ! - Copyright ORBIFLY Décembre 2007 - Disclaimer

ORBIFLY MET'MAP TEAM :

Programmation & Développement : Alexandra Zaïnal
Conception & Développement : Baudouin d'Aumeries
Co-Programmation & Développement : Marc-Olivier Méhu
Soutien technique & logistique : Manuel Goepfert

Contact : metmap@orbifly.com




SOURCES & CREDITS :

   NOAA